Погода в Семипалатинске

Хотите узнать прогноз погоды в Семипалатинске? Тогда Вам сюда: Погода в Семипалатинске

Поиск расширенной информации на нашем сайте:

Полезная информация:

Новости сайта



02.01.2020
Опубликован Долгосрочный прогноз погоды по городам России и ближнего зарубежья на январь 2020 года.
Карты: Прогноз на январь и февраль 2020 года, Сравнение прогнозируемой аномалии приземной температуры воздуха на январь 2020 года по разным моделям.




Погода в Семипалатинске - сегодня

Время (UTC), дата Ветер
(°,м/с) 
Видим.   Явления Облачность Т
(°С)
Тd
(°С)
f(%) Тe
(°С)
Pmin
(гПа)
dP
(гПа)
Po
(мм)
O2
(г/м3)
Тmin Tmax R s Состояние
почвы
06 04.06.20 360 (С) 10 км  {ливн. осадки}  10/10 600 м кучево-дожд. 
[Cb calv]
+15.2 +11.1 76 +19  1009.7  -0.1  740  280  +11.9       
09 04.06.20 340 (С) 10 км    9/9 600 м кучево-дожд. 
[Cb calv]
+17.4 +10.3 63 +20  1008.6  -0.9  739  278           
12 04.06.20 340 (С) 10 км    9/9 600 м кучево-дожд. 
[Cb calv]
+19.6 +8.8 50 +20  1007  -1.4  738  276           
15 04.06.20 тихо ()   10 км    8/8 1000 м 
[Sc]
+17.2 +9.2 59 +18  1006.7  -0.5  738  278    +21.1  0.0     
18 04.06.20 тихо ()   н/о    6/6 1000 м 
[Sc]
+13.6 +10.4 81 +16  1007.8  0.8  739  282    +21.1  0.0     
21 04.06.20 тихо ()   н/о    4/3 1000 м средняя 
[Sc|Ac trans]
+10.4 +7.7 83 +10  1006.9  -1.2  738  285           
00 05.06.20 290 (З) 10 км    3/1 1000 м средняя 
[Sc|Ac trans]
+8.7 +5.4 80 +8  1008.5  1.4  739  288           
03 05.06.20 340 (С) 10 км    8/8 600 м кучево-дожд. 
[Cb calv]
+11.4 +6.1 70 +10  1010.2  1.9  740  285           
06 05.06.20 320 (СЗ) 10 км    9/9 600 м кучево-дожд. 
[Cb calv]
+14 +0 38 +13  1011.5  1.5  741  284  +8.4         
09 05.06.20 290 (З) 10 км  в посл. час ливневой дождь  9/9 600 м кучево-дожд. 
[Cb calv]
+13.1 +4.7 57 +12  1013.3  1.7  743  285           
12 05.06.20 320 (СЗ) 10  10 км  {ливн. осадки}  10/10 600 м кучево-дожд. 
[Cb calv]
+12.5 +6.2 65 +11  1014.4  743  285           
15 05.06.20 270 (З) 10 км    9/9 600 м кучево-дожд. 
[Cb calv]
+12.1 +7.8 75 +12  1015.5  1.1  744  286    +15.6  0.0     
18 05.06.20 270 (З) н/о  слаб. ливневой дождь  10/10 600 м кучево-дожд. 
[Cb calv]
+9.8 +7.1 83 +10  1016.5  0.8  745  288    +15.6  0.0     
21 05.06.20 290 (З) н/о  {ливн. осадки}  3/3 600 м кучево-дожд. 
[Cb calv]
+9.2 +6.2 81 +9  1017.2  0.6  745  289           
00 06.06.20 тихо ()   10 км  {ливн. осадки}  9/1 1000 м средняя, верхняя 
[Sc|Ac trans|Ci]
+9.4 +8.4 93 +9  1018.1  0.9  746  289           
03 06.06.20 тихо ()   10 км  слаб. ливневой дождь  10/10 600 м кучево-дожд. 
[Cb calv]
+10.7 +9.9 95 +12  1018.5  0.5  746  288         
06 06.06.20 тихо ()   10 км  в посл. час ливневой дождь  9/9 600 м кучево-дожд. 
[Cb cap]
+14 +11.6 85 +17  1017.2  -1  746  284  +8.3       
09 06.06.20 090 (В) 10 км  {ливн. осадки}  9/9 600 м кучево-дожд. 
[Cb cap]
+12.8 +12.2 96 +17  1017.2  -0.1  745  285           
12 06.06.20 050 (СВ) 10 км  {ливн. осадки}  9/8 600 м кучево-дожд., средняя 
[Cb cap|Ac trans]
+14 +12.2 89 +19  1018.1  746  284           
15 06.06.20 тихо ()   10 км    8/8 600 м кучево-дожд., средняя 
[Cb cap|Ac trans]
+13.9 +12.3 90 +18  1019.4  1.3  747  284    +15.9     
18 06.06.20 тихо ()   н/о    6/3 1000 м средняя, верхняя 
[Sc|Ac trans|Ci fib]
+8.7 +7.4 92 +9  1020.8  0.9  748  291    +15.9     
21 06.06.20 тихо ()   н/о    9/9 1000 м 
[Sc]
+8.9 +8.3 96 +9  1021  0.2  748  290           
00 07.06.20 тихо ()   10 км    10/10 1000 м 
[Sc]
+9.8 +9 95 +10  1022.1  1.1  749  290           
03 07.06.20 020 (С) 10 км    9/9 600 м кучево-дожд. 
[Cb cap]
+14.6 +9.8 73 +16  1022.6  0.9  749  285           
06 07.06.20 020 (С) 10 км    8/6 600 м кучево-дожд., средняя 
[Cb calv|Ac trans]
+17.8 +8.3 54 +19  1021.9  -0.4  749  282  +7         
Время (UTC), дата Ветер
(°,м/с) 
Видим.   Явления Облачность Т
(°С)
Тd
(°С)
f(%) Тe
(°С)
Pmin
(гПа)
dP
(гПа)
Po
(мм)
O2
(г/м3)
Тmin Tmax R s Состояние
почвы

Для получения пояснительной информации подведите курсор к названию столбца.

ПОГОДА в Семипалатинске - архив

Всё, что Вы хотите узнать о погоде в Семипалатинске - удобно и подробно!

Выберите нужную дату (начиная с 1 января 2019* года) и нажмите кнопку "Найти".
Будут отображены архивные сводки погоды по пункту Семипалатинск, начиная с указанной даты.


Отображать данные в формате CSV (для использования в таблицах Excel)


Внимание! Наш архив погоды предназначен исключительно для личного некоммерческого использования в познавательных целях. Если Вам необходимы официальные справки о состоянии погоды (для производственных, юридических, коммерческих и т.п. целей), обращайтесь в органы Росгидромета.

*Примечание: данная дата относится к архиву по метеостанциям СССР (Россия, СНГ, Балтия).
Архив по метеостанциям Зарубежной Европы и Азии (кроме Китая) хранится 10 дней, по другим регионам земного шара (Китай, Африка, Америка, Австралия, Океания) - 1 день.

Семипалатинск - район местоположения метеостанции


Название, широта, долгота, высота метеостанции:
Семипалатинск 50.4°ш. 80.3°д. 196 м над ур. моря [Казахстан]

Дополнительная информация

В oтличие oт бoльшинства пoгoдных сайтoв мы публикуем пoдрoбную метеoинфoрмацию в детальнoм прoфессиoнальнoм фoрмате.

Характеристики температуры и влажнoсти вoздуха измеряются на высoте 2 м в тени вдали oт зданий и деревьев.
Скoрoсть ветра измеряется на высoте 10 м (на урoвне рoста челoвека скoрoсть ветра ниже в 1.5-2 раза). Если метеoстанция нахoдится в гoрoде или в лесу, тo скoрoсть ветра занижена на 2-4 м/с пo сравнению с oткрытым местoм. Скoрoсть ветра над акватoриями крупных рек и oзёр, а также на вершинах хoлмoв на 2-5 м/с выше, чем в oбычных услoвиях.
Атмoсфернoе давление в разных тoчках местнoсти мoжет значительнo oтличаться oт давления на метеoстанции, в зависимoсти oт услoвий рельефа (при пoдъёме на 10 м давление пoнижается примернo на 1 мм рт.ст.).